Tillbaka till svenska Fidonet
English   Information   Debug  
FILM   0/18
FNEWS_PUBLISH   4758
FN_SYSOP   42037
FN_SYSOP_OLD1   71952
FTP_FIDO   0/2
FTSC_PUBLIC   0/13899
FUNNY   0/4886
GENEALOGY.EUR   0/71
GET_INFO   105
GOLDED   0/408
HAM   5000/16395
HOLYSMOKE   0/6791
HOT_SITES   0/1
HTMLEDIT   0/71
HUB203   466
HUB_100   264
HUB_400   39
HUMOR   0/29
IC   0/2851
INTERNET   0/424
INTERUSER   0/3
IP_CONNECT   719
JAMNNTPD   0/233
JAMTLAND   0/47
KATTY_KORNER   0/41
LAN   0/16
LINUX-USER   0/19
LINUXHELP   0/1155
LINUX   0/22267
LINUX_BBS   0/957
mail   18.68
mail_fore_ok   249
MENSA   0/341
MODERATOR   0/102
MONTE   0/992
MOSCOW_OKLAHOMA   0/1245
MUFFIN   0/783
MUSIC   0/321
N203_STAT   938
N203_SYSCHAT   313
NET203   321
NET204   69
NET_DEV   0/10
NORD.ADMIN   0/101
NORD.CHAT   0/2572
NORD.FIDONET   189
NORD.HARDWARE   0/28
NORD.KULTUR   0/114
NORD.PROG   0/32
NORD.SOFTWARE   0/88
NORD.TEKNIK   0/58
NORD   0/453
OCCULT_CHAT   0/93
OS2BBS   0/787
OS2DOSBBS   0/580
OS2HW   0/42
OS2INET   0/37
OS2LAN   0/134
OS2PROG   0/36
OS2REXX   0/113
OS2USER-L   207
OS2   0/4806
OSDEBATE   4962/18996
PASCAL   0/490
PERL   0/457
PHP   0/45
POINTS   0/405
POLITICS   0/29554
POL_INC   5167/14731
PSION   103
R20_ADMIN   1132
R20_AMATORRADIO   0/2
R20_BEST_OF_FIDONET   14
R20_CHAT   0/893
R20_DEPP   0/3
R20_DEV   399
R20_ECHO2   1670
R20_ECHOPRES   0/35
R20_ESTAT   0/719
R20_FIDONETPROG...
...RAM.MYPOINT
  0/2
R20_FIDONETPROGRAM   0/22
R20_FIDONET   0/248
R20_FILEFIND   0/24
R20_FILEFOUND   0/22
R20_HIFI   0/3
R20_INFO2   3560
R20_INTERNET   0/12940
R20_INTRESSE   0/60
R20_INTR_KOM   0/99
R20_KANDIDAT.CHAT   42
R20_KANDIDAT   28
R20_KOM_DEV   112
R20_KONTROLL   6670/13360
R20_KORSET   0/18
R20_LOKALTRAFIK   0/24
R20_MODERATOR   0/1852
R20_NC   76
R20_NET200   245
R20_NETWORK.OTH...
...ERNETS
  0/13
R20_OPERATIVSYS...
...TEM.LINUX
  0/44
R20_PROGRAMVAROR   0/1
R20_REC2NEC   534
R20_SFOSM   0/341
R20_SF   0/108
R20_SPRAK.ENGLISH   0/1
R20_SQUISH   107
R20_TEST   2
R20_WORST_OF_FIDONET   20
RAR   0/9
RA_MULTI   106
RA_UTIL   0/162
REGCON.EUR   0/2066
REGCON   0/13
SCIENCE   0/1206
SF   0/239
SHAREWARE_SUPPORT   4967/5146
SHAREWRE   0/14
SIMPSONS   0/169
STATS_OLD1   0/2539.065
STATS_OLD2   0/2530
STATS_OLD3   0/2395.095
STATS_OLD4   808/1692.25
SURVIVOR   0/495
SYSOPS_CORNER   0/3
SYSOP   0/84
TAGLINES   0/112
TEAMOS2   0/4530
TECH   0/2617
TEST.444   0/105
TRAPDOOR   0/19
TREK   0/755
TUB   0/290
UFO   0/40
UNIX   0/1316
USA_EURLINK   0/102
USR_MODEMS   0/1
VATICAN   0/2740
VIETNAM_VETS   0/14
VIRUS   0/378
VIRUS_INFO   0/201
VISUAL_BASIC   0/473
WHITEHOUSE   0/5187
WIN2000   0/101
WIN32   0/30
WIN95   1424/4291
WIN95_OLD1   0/70272
WINDOWS   0/1517
WWB_SYSOP   0/419
WWB_TECH   0/810
ZCC-PUBLIC   0/1
ZEC   4

 
4DOS   0/134
ABORTION   0/7
ALASKA_CHAT   0/506
ALLFIX_FILE   0/1313
ALLFIX_FILE_OLD1   0/7997
ALT_DOS   0/152
AMATEUR_RADIO   0/1039
AMIGASALE   0/14
AMIGA   0/331
AMIGA_INT   0/1
AMIGA_PROG   0/20
AMIGA_SYSOP   0/26
ANIME   0/15
ARGUS   0/924
ASCII_ART   0/340
ASIAN_LINK   0/651
ASTRONOMY   0/417
AUDIO   0/92
AUTOMOBILE_RACING   0/105
BABYLON5   0/17862
BAG   135
BATPOWER   0/361
BBBS.ENGLISH   0/382
BBSLAW   0/109
BBS_ADS   0/5290
BBS_INTERNET   0/507
BIBLE   0/3563
BINKD   0/1119
BINKLEY   0/215
BLUEWAVE   0/2173
CABLE_MODEMS   0/25
CBM   0/46
CDRECORD   0/66
CDROM   0/20
CLASSIC_COMPUTER   0/378
COMICS   0/15
CONSPRCY   0/899
COOKING   39908
COOKING_OLD1   0/24719
COOKING_OLD2   0/40862
COOKING_OLD3   0/37489
COOKING_OLD4   0/35496
COOKING_OLD5   9370
C_ECHO   0/189
C_PLUSPLUS   0/31
DIRTY_DOZEN   0/201
DOORGAMES   0/2155
DOS_INTERNET   0/196
duplikat   6102
ECHOLIST   9763/18295
EC_SUPPORT   0/318
ELECTRONICS   0/359
ELEKTRONIK.GER   1534
ENET.LINGUISTIC   0/13
ENET.POLITICS   0/4
ENET.SOFT   0/11701
ENET.SYSOP   34210
ENET.TALKS   0/32
ENGLISH_TUTOR   0/2000
EVOLUTION   666/1335
FDECHO   0/217
FDN_ANNOUNCE   2659/7068
FIDONEWS   24756
FIDONEWS_OLD1   19001/49742
FIDONEWS_OLD2   0/35949
FIDONEWS_OLD3   0/30874
FIDONEWS_OLD4   32352/37224
FIDO_SYSOP   12913
FIDO_UTIL   0/180
FILEFIND   0/209
FILEGATE   0/212
Möte HAM, 16395 texter
 lista första sista föregående nästa
Text 3655, 880 rader
Skriven 2010-05-14 01:00:21 av Amsat List (1:323/120.0)
Ärende: [keps]  orb10133.amsa
=============================
[keps]  orb10133.amsa

Return-Path: <keps-bounces@amsat.org>
X-Rcpt: craig.healy@chowda.com
X-UIDL: 1273813022.49709

SB KEPS @ AMSAT  $ORB10133.O
Orbital Elements  10133.OSCAR

HR AMSAT ORBITAL ELEMENTS FOR OSCAR SATELLITES
FROM WA5QGD FORT WORTH,TX May 13, 2010
Send Subscribe/unsubscribe to KEPS at http://www.amsat.org/mailman/listinfo/kep
BID: ORB10133.O
TO ALL RADIO AMATEURS BT

Satellite: AO-07
Catalog number: 07530
Epoch time:      10133.64655901
Element set:     775
Inclination:      101.4012 deg
RA of node:       150.8523 deg
Eccentricity:    0.0011827
Arg of perigee:   343.5302 deg
Mean anomaly:     016.5381 deg
Mean motion:   12.53578285 rev/day
Decay rate:       -2.7e-07 rev/day^2
Epoch rev:           62412
Checksum:              263

Satellite: FO-29
Catalog number: 24278
Epoch time:      10132.90279403
Element set:     309
Inclination:      098.5151 deg
RA of node:       326.9115 deg
Eccentricity:    0.0349898
Arg of perigee:   215.3189 deg
Mean anomaly:     142.4317 deg
Mean motion:   13.52950407 rev/day
Decay rate:        6.1e-07 rev/day^2
Epoch rev:           67833
Checksum:              316

Satellite: SO-33
Catalog number: 25509
Epoch time:      10133.66159030
Element set:     710
Inclination:      031.4344 deg
RA of node:       343.7549 deg
Eccentricity:    0.0353753
Arg of perigee:   347.9036 deg
Mean anomaly:     011.3279 deg
Mean motion:   14.28303445 rev/day
Decay rate:       1.02e-06 rev/day^2
Epoch rev:           60311
Checksum:              266

Satellite: RS-22
Catalog number: 27939
Epoch time:      10133.66335301
Element set:     177
Inclination:      097.8977 deg
RA of node:       000.6074 deg
Eccentricity:    0.0013737
Arg of perigee:   164.2548 deg
Mean anomaly:     195.9085 deg
Mean motion:   14.63415449 rev/day
Decay rate:        6.2e-07 rev/day^2
Epoch rev:           35390
Checksum:              316

Satellite: VO-52
Catalog number: 28650
Epoch time:      10133.55845565
Element set:     502
Inclination:      097.6948 deg
RA of node:       188.3384 deg
Eccentricity:    0.0027820
Arg of perigee:   032.2863 deg
Mean anomaly:     328.0036 deg
Mean motion:   14.81741746 rev/day
Decay rate:       -5.5e-07 rev/day^2
Epoch rev:           27156
Checksum:              315

Satellite: SO-67
Catalog number: 35870
Epoch time:      10133.71649988
Element set:     722
Inclination:      097.3353 deg
RA of node:       183.7583 deg
Eccentricity:    0.0002110
Arg of perigee:   190.9354 deg
Mean anomaly:     316.8456 deg
Mean motion:   15.20878269 rev/day
Decay rate:       7.52e-06 rev/day^2
Epoch rev:            3621
Checksum:              324

Satellite: HO-68
Catalog number: 36122
Epoch time:      10133.66447253
Element set:     299
Inclination:      100.4716 deg
RA of node:       194.4401 deg
Eccentricity:    0.0007975
Arg of perigee:   055.6074 deg
Mean anomaly:     304.5799 deg
Mean motion:   13.16280584 rev/day
Decay rate:       -4.5e-07 rev/day^2
Epoch rev:            1967
Checksum:              309

/EX
SB KEPS @ AMSAT  $ORB10133.D
Orbital Elements  10133.MICROS

HR AMSAT ORBITAL ELEMENTS FOR THE MICROSATS
FROM WA5QGD FORT WORTH,TX May 13, 2010
Send Subscribe/unsubscribe to KEPS at http://www.amsat.org/mailman/listinfo/kep
BID: ORB10133.D
TO ALL RADIO AMATEURS BT

Satellite: UO-11
Catalog number: 14781
Epoch time:      10132.72599957
Element set:    0238
Inclination:      098.0581 deg
RA of node:       184.3539 deg
Eccentricity:    0.0009157
Arg of perigee:   000.3783 deg
Mean anomaly:     359.7423 deg
Mean motion:   14.79800777 rev/day
Decay rate:       2.79e-06 rev/day^2
Epoch rev:           40656
Checksum:              335

Satellite: AO-16
Catalog number: 20439
Epoch time:      10132.55043987
Element set:    0894
Inclination:      098.3295 deg
RA of node:       091.8652 deg
Eccentricity:    0.0009936
Arg of perigee:   273.5718 deg
Mean anomaly:     086.4323 deg
Mean motion:   14.31860547 rev/day
Decay rate:        4.1e-07 rev/day^2
Epoch rev:           06028
Checksum:              318

Satellite: LO-19
Catalog number: 20442
Epoch time:      10132.76349331
Element set:    0804
Inclination:      098.2888 deg
RA of node:       098.0152 deg
Eccentricity:    0.0010910
Arg of perigee:   267.3655 deg
Mean anomaly:     092.6266 deg
Mean motion:   14.32092464 rev/day
Decay rate:        7.6e-07 rev/day^2
Epoch rev:           06048
Checksum:              298

Satellite: AO-27
Catalog number: 22825
Epoch time:      10132.59088719
Element set:    0528
Inclination:      098.4834 deg
RA of node:       081.4660 deg
Eccentricity:    0.0008708
Arg of perigee:   020.7392 deg
Mean anomaly:     339.4134 deg
Mean motion:   14.29296494 rev/day
Decay rate:       -9.0e-08 rev/day^2
Epoch rev:           86696
Checksum:              338

Satellite: IO-26
Catalog number: 22826
Epoch time:      10132.52272939
Element set:    0266
Inclination:      098.4776 deg
RA of node:       082.0149 deg
Eccentricity:    0.0009346
Arg of perigee:   015.4925 deg
Mean anomaly:     344.6541 deg
Mean motion:   14.29552551 rev/day
Decay rate:        3.6e-07 rev/day^2
Epoch rev:           86706
Checksum:              314

Satellite: GO-32
Catalog number: 25397
Epoch time:      10133.65126307
Element set:     184
Inclination:      098.3118 deg
RA of node:       143.0035 deg
Eccentricity:    0.0001794
Arg of perigee:   045.4659 deg
Mean anomaly:     314.6676 deg
Mean motion:   14.23176779 rev/day
Decay rate:      -1.40e-06 rev/day^2
Epoch rev:           61513
Checksum:              294

